Lexington, KY

6:06 PM EST on February 08, 2016 (GMT -0500)
Plainview | | Change Station
CLOSE
Current Station
Personal Weather Station
Location: Lexington, KY
Elevation: 1001 ft
Nearby Weather Stations
Active Advisory: Winter Weather Advisory

Elev 1001 ft 38.00 °N, 84.46 °W | Updated 2 minutes ago

Snow
Snow
32.4 °F
Feels Like 32 °F
N
1.7
Wind Variable Wind from West

Today
High -- | Low -- °F
--% Chance of Precip.
Yesterday
High -- | Low -- °F
Precip. -- in
Pressure 29.72 in
Visibility 3.0 miles
Clouds Few 900 ft
Overcast 3300 ft
Windchill 32 °F
Dew Point 32 °F
Humidity 98%
Rainfall 0.33 in
Snow Depth Not available.
7:36 AM 6:08 PM
New Moon, 0% visible
SPECI KLEX 082304Z 27010KT 3SM -SN BR FEW009 OVC033 00/M02 A2972 RMK AO2 P0000 T00001017
Pressure 29.72 in
Visibility 3.0 miles
Clouds Few 900 ft
Overcast 3300 ft
Windchill 32 °F
Dew Point 32 °F
Humidity 98%
Rainfall 0.33 in
Snow Depth Not available.
7:36 AM 6:08 PM
New Moon, 0% visible
SPECI KLEX 082304Z 27010KT 3SM -SN BR FEW009 OVC033 00/M02 A2972 RMK AO2 P0000 T00001017

10-Day Weather Forecast

Almanac

Astronomy

Feb. 08, 2016 Rise Set
Actual Time
Civil Twilight
Nautical Twilight
Astronomical Twilight
Moon
Length of Visible Light
Length of Day
Tomorrow will be .
, % of the Moon is Illuminated

Today's Extremes

State Highs State Lows

Community

WunderPhotos

Upload Photos

1,891,523 photos uploaded!

WunderBlog® & News

Nearby

Air Quality

  Air Quality AQ Index Pollutant
Not available.

Snow Depth

Station Depth Elevation

Earthquake Activity

City Distance Mag. Time & Date
Minimum magnitude displayed is 2.5.

Coastal Water Temperatures

Place Temperature

Stations

Nearby Weather Stations

Station Location Temp. Windchill Dew Point Humidity Wind Precip. Elev Updated Type
                   

Watches & Warnings

Winter Weather Advisory
Issued: 1:54 PM CST Feb. 8, 2016 – National Weather Service

... Winter Weather Advisory remains in effect until 6 PM EST /5 PM
CST/ Tuesday...

* timing... late this afternoon through at least Tuesday evening.

* Main impact... periods of moderate to briefly heavy snow
showers will impact travel at times. Roads may become slick
and snow covered... especially secondary and untreated
surfaces.

* Other impacts... gusty winds along with moderate snow showers may
reduce visibility at times. Also wet roadways may become slick
overnight as temperatures drop.

Precautionary/preparedness actions...

Research shows that more traffic accidents occur with an inch or
less of snow... before drivers realize that traction is reduced.
Don't become a statistic... slow down and leave extra distance
between vehicles.



Rjs